الصفحة الرئيسية
METAR-TAF:

METAR-TAF

مطار :

Searle Field

وغالالا, نبراسكا, الولايات المتحدة

دائرة عرض: 41-07-11N, خط طول: 101-46-08W, ارتفاع: 999 متر

مراقبة الطقس الحالي

تاريخ ووقت الإصدار 21 دقيقة قبل الساعة 13:55UTC
ريح 6 عقدة من الغرب/الجنوب الغربي
درجة الحرارة -7°درجة مئوية
الرطوبة 86%
ضغط 1026 hPa
الرؤية: 16.1 كم
سماء صافية

METAR: KOGA 141355Z AUTO 24006KT 10SM CLR M07/M09 A3029 RMK AO2 T10701087

زمن: 07:16 (14:16 UTC)


TAF: مفقودة

أرصاد الطقس والتوقعات من أكثر من 4000 مطار (تقارير الطقس للمطار METAR والتنبؤ بالطقس بالمطارTAF).

المحطات المتاحة هي النقط الصفراء والحمراء على الخريطة.

حرك المؤشر فوق النقطة لمعرفة اسم المحطة.

ثم انقر لمعرفة أرصاد وتوقعات الطقس.

لتغيير الخارطة: اضغط على الأزرار الخضراء مع رمز الصليب الأسود للتكبير. على الزر الأخضر مع شرطة للتصغير، أو على الأسهم الخضراء للخرائط المجاورة.


METAR-TAF: